Regional Weather Roundup
Issued by NWS

Home | Current Version | Previous Version | Graphics & Text | Print | Product List | Glossary On
Versions: 1 2 3 4 5 6 7 8 9 10 11 12 13 14 15 16 17 18 19 20 21 22 23 24 25 26 27 28 29 30 31 32 33 34 35 36 37 38 39 40 41 42 43 44 45 46 47 48 49 50
000
ASUS43 KLMK 152202
RWRKY
KENTUCKY REGIONAL WEATHER ROUNDUP
NATIONAL WEATHER SERVICE LOUISVILLE KY
600 PM EDT TUE APR 15 2014

NOTE "FAIR" INDICATES FEW OR NO CLOUDS BELOW 12,000 FEET
WITH NO SIGNIFICANT WEATHER AND/OR OBSTRUCTIONS TO VISIBILITY.

KYZ001>023-026-027-061>063-070>075-152300-
WESTERN AND SOUTH CENTRAL KENTUCKY

CITY           SKY/WX    TMP DP  RH WIND       PRES   REMARKS
PADUCAH        SUNNY     49  21  33 N10       30.19S
HENDERSON      PTSUNNY   45  21  39 N13       30.20S
OWENSBORO      PTSUNNY   43  19  38 N13       30.20R
HOPKINSVILLE   MOSUNNY   45  21  39 NW12      30.19R
BOWLING GREEN  MOSUNNY   44  19  36 N10G21    30.17R
GLASGOW        NOT AVBL
$$

KYZ024-025-028>034-038-045-046-053-152300-
NORTH CENTRAL KENTUCKY

CITY           SKY/WX    TMP DP  RH WIND       PRES   REMARKS
LOUISVILLE/SDF PTSUNNY   45  19  35 NW13      30.15R
LOUISVILLE/LOU CLOUDY    48  18  30 NW12      30.16R
FORT KNOX      PTSUNNY   42  19  40 N12       30.14R
$$

KYZ035>037-039>044-047>052-055>060-089>105-152300-
NORTHEAST KENTUCKY

CITY           SKY/WX    TMP DP  RH WIND       PRES   REMARKS
LEXINGTON      CLOUDY    40  22  48 NW10      30.12R WCI  33
COVINGTON      PTSUNNY   38  19  46 NW16      30.13R WCI  29
FRANKFORT      PTSUNNY   39  22  50 NW9G18    30.13R WCI  33
$$

KYZ054-064>069-076>088-106>120-152300-
SOUTHEAST KENTUCKY

CITY           SKY/WX    TMP DP  RH WIND       PRES   REMARKS
JACKSON        CLOUDY    37  22  54 NW13      30.06R WCI  29
LONDON         CLOUDY    39  27  62 NW13      30.09R WCI  31
SOMERSET       NOT AVBL
MIDDLESBORO    NOT AVBL
MONTICELLO     CLOUDY    42  27  55 N10       30.13R
$$




USA.gov is the U.S. government's official web portal to all federal, state and local government web resources and services.